HULIANWANG DIGUI-82

Last updated on Sun Oct 19 2025 00:02:07 GMT+0000 (Coordinated Universal Time)

1 65817U 25220A 25290.85639244 .00000044 00000+0 36338-4 0 9991 2 65817 86.4950 126.0524 0001437 88.5423 271.5896 13.60966844 2788
UTC large
Height (km)
Speed (km/s)
/
Latitude / Longitude
Inclination (degrees)
Orbital Period (minutes)
Azimuth
Elevation
Range (km)
Doppler Factor

Next 0 passes for location: London (51.5072 / 0.1276)

Sorry there are no passes over London.